[[[{"header":{"parameterUnit":"kt","parameterCategory":2,"dx":1,"dy":1,"la1":30.253999710083008,"la2":30.299108505249023,"lo1":-89.0895004272461,"lo2":-89.04439544677734,"nx":28,"ny":28,"refTime":"2022-10-05T21:00:00:Z","depth":0,"parameterNumber":1,"parameterNumberName":"U-component_of_WINDS"},"data":[-0.5832,-0.587,-0.5883,-0.5933,-0.5953,-0.5989,-0.6007,-0.603,-0.6053,-0.6098,-0.6126,-0.6143,-0.6171,-0.6207,-0.6239,-0.6246,-0.6258,-0.6262,-0.627,-0.624,-0.6237,-0.6234,-0.6226,-0.6264,-0.6264,-0.6298,-0.6299,-0.6299,-0.581,-0.583,-0.586,-0.5899,-0.5925,-0.5929,-0.596,-0.5981,-0.6014,-0.6041,-0.6069,-0.611,-0.6144,-0.617,-0.6205,-0.6223,-0.6227,-0.6232,-0.6231,-0.6235,-0.6204,-0.6195,-0.6228,-0.6228,-0.6228,-0.6228,-0.6228,-0.6228,-0.5773,-0.5796,-0.5826,-0.5859,-0.5882,-0.5908,-0.5931,-0.5952,-0.5981,-0.6019,-0.6029,-0.6066,-0.6096,-0.6144,-0.6163,-0.6192,-0.619,-0.6199,-0.6201,-0.6203,-0.6204,-0.6154,-0.6199,-0.6199,-0.6199,-0.6199,-0.6199,0,-0.5751,-0.5761,-0.579,-0.5824,-0.5849,-0.5876,-0.5903,-0.5918,-0.5943,-0.5966,-0.6001,-0.6024,-0.6068,-0.6102,-0.6137,-0.6156,-0.6163,-0.6165,-0.6171,-0.6167,-0.6159,-0.6164,-0.6113,-0.6163,-0.6163,-0.6163,-0.6163,-0.6163,-0.5716,-0.574,-0.5778,-0.5797,-0.5816,-0.5846,-0.5867,-0.5887,-0.5908,-0.5944,-0.5963,-0.5997,-0.6026,-0.608,-0.6104,-0.6136,-0.614,-0.6158,-0.6145,-0.614,-0.6141,-0.614,-0.6142,-0.616,-0.616,-0.6161,-0.6161,0,-0.5694,-0.5716,-0.5758,-0.5793,-0.5803,-0.5827,-0.5858,-0.5881,-0.5898,-0.5932,-0.5941,-0.5969,-0.6003,-0.6024,-0.6066,-0.6076,-0.6117,-0.612,-0.6107,-0.6109,-0.6127,-0.6125,-0.6182,-0.6191,-0.6151,-0.6151,-0.6152,0,-0.5673,-0.5703,-0.5734,-0.5757,-0.5792,-0.5811,-0.5845,-0.5864,-0.589,-0.5917,-0.5928,-0.5953,-0.5976,-0.6004,-0.6019,-0.6056,-0.6063,-0.6073,-0.6077,-0.6073,-0.6071,-0.6084,-0.6083,-0.6084,-0.6083,-0.6083,-0.6083,0,-0.5637,-0.569,-0.5727,-0.5742,-0.5783,-0.5801,-0.5818,-0.5848,-0.5868,-0.5897,-0.5911,-0.5943,-0.5961,-0.5987,-0.6005,-0.5996,-0.6051,-0.6042,-0.6061,-0.606,-0.6072,-0.6071,-0.6116,-0.6082,-0.6082,-0.6082,-0.6082,0,-0.5623,-0.5653,-0.5703,-0.5738,-0.5751,-0.5775,-0.5809,-0.5835,-0.5865,-0.5876,-0.5899,-0.5909,-0.5943,-0.5932,-0.5979,-0.5961,-0.5979,-0.5991,-0.5993,-0.5998,-0.5985,-0.6008,-0.6049,-0.6054,-0.6001,-0.6001,-0.6,0,-0.5577,-0.5634,-0.5651,-0.5699,-0.5728,-0.5739,-0.5766,-0.5792,-0.5809,-0.5837,-0.5855,-0.5886,-0.5883,-0.5895,-0.5915,-0.5936,-0.5959,-0.5933,-0.5973,-0.5974,-0.5965,-0.6002,-0.6003,-0.6037,-0.5992,-0.5993,-0.5993,0,-0.5544,-0.5594,-0.5601,-0.5619,-0.5657,-0.5681,-0.5713,-0.5748,-0.5765,-0.5793,-0.582,-0.5864,-0.5863,-0.5884,-0.5895,-0.5915,-0.5944,-0.5912,-0.5913,-0.5917,-0.5989,-0.599,-0.5996,-0.5947,-0.5948,-0.5949,-0.5987,0,-0.5518,-0.5549,-0.557,-0.561,-0.5632,-0.5662,-0.5685,-0.5705,-0.5714,-0.5731,-0.5771,-0.5798,-0.5833,-0.5845,-0.5854,-0.5893,-0.589,-0.5889,-0.588,-0.5904,-0.5917,-0.5923,-0.5859,-0.5859,-0.5859,-0.5859,0,0,-0.5469,-0.5514,-0.5531,-0.5562,-0.5582,-0.5593,-0.5624,-0.5644,-0.5685,-0.5699,-0.5694,-0.576,-0.5781,-0.5828,-0.5837,-0.5851,-0.586,-0.5851,-0.5893,-0.5896,-0.59,-0.5913,-0.5918,-0.5859,-0.5859,-0.5858,-0.5858,0,-0.5464,-0.5486,-0.5516,-0.5538,-0.5572,-0.5588,-0.5595,-0.563,-0.5642,-0.5682,-0.569,-0.5716,-0.5768,-0.579,-0.5808,-0.5846,-0.5851,-0.5855,-0.5868,-0.5891,-0.5894,-0.5898,-0.5912,-0.5917,-0.5858,-0.5858,-0.5858,0,-0.5435,-0.5461,-0.5478,-0.5523,-0.5545,-0.5575,-0.5571,-0.5602,-0.5625,-0.5635,-0.5673,-0.5691,-0.5723,-0.5763,-0.5782,-0.5779,-0.5841,-0.5825,-0.5826,-0.5829,-0.5852,-0.5857,-0.5861,-0.5808,-0.5807,-0.5807,0,0,-0.5428,-0.5457,-0.5491,-0.5524,-0.5537,-0.5562,-0.558,-0.5591,-0.5619,-0.563,-0.5653,-0.568,-0.571,-0.573,-0.5759,-0.5801,-0.5809,-0.5818,-0.582,-0.5822,-0.5826,-0.5849,-0.5854,-0.5806,-0.5806,-0.5806,0,0,-0.5425,-0.5465,-0.5469,-0.551,-0.5537,-0.5572,-0.5592,-0.5597,-0.5626,-0.5625,-0.5645,-0.5653,-0.5691,-0.5708,-0.5692,-0.5757,-0.5748,-0.5752,-0.5744,-0.5747,-0.575,-0.5745,-0.5692,0,0,0,0,0,-0.5431,-0.546,-0.5463,-0.5473,-0.5531,-0.557,-0.5578,-0.5594,-0.5588,-0.5603,-0.5623,-0.5627,-0.5704,-0.569,-0.57,-0.5717,-0.5793,-0.5795,-0.5798,-0.5797,-0.58,-0.5803,0,0,0,0,0,0,-0.5435,-0.5448,-0.5463,-0.5499,-0.5512,-0.5569,-0.5562,-0.5568,-0.5587,-0.5587,-0.5623,-0.5628,-0.5643,-0.5686,-0.5695,-0.5711,-0.569,-0.5794,-0.5796,-0.5798,-0.5798,-0.5801,-0.5803,0,0,0,0,0,-0.5439,-0.5449,-0.5536,-0.5498,-0.551,-0.5539,-0.5561,-0.5566,-0.5581,-0.5612,-0.5617,-0.5592,-0.5643,-0.5652,-0.5691,-0.5707,-0.5684,-0.5687,-0.5795,-0.5797,-0.5798,-0.5799,0,0,0,0,0,0,-0.5441,-0.5453,-0.5539,-0.5543,-0.5489,-0.5536,-0.5544,-0.5564,-0.5605,-0.5611,-0.5582,-0.5581,-0.5644,-0.565,-0.5657,-0.5704,-0.5679,-0.5682,-0.5684,-0.5796,-0.5798,-0.5799,0,0,0,0,0,0,-0.5448,-0.5457,-0.5541,-0.5528,-0.553,-0.5533,-0.554,-0.5576,-0.5605,-0.5572,-0.5573,-0.5581,-0.5634,-0.5649,-0.5654,-0.5709,-0.5675,-0.5678,-0.568,-0.5682,-0.5797,-0.5798,0,0,0,0,0,0,-0.5452,-0.5459,-0.5527,-0.5529,-0.5531,-0.5578,-0.5565,-0.5623,-0.5594,-0.557,-0.5592,-0.5591,-0.5633,-0.5638,-0.5653,-0.5706,-0.5708,-0.5675,-0.5677,-0.5679,-0.568,0,0,0,0,0,0,0,-0.5455,-0.5401,-0.5515,-0.553,-0.5532,-0.558,-0.5582,-0.5583,-0.5594,-0.5593,-0.5592,-0.5592,-0.5658,-0.5661,-0.5664,-0.5702,0,0,-0.5675,-0.5677,0,0,0,0,0,0,0,0,-0.5399,-0.5401,-0.5515,-0.5516,-0.5516,-0.5581,-0.5581,-0.5582,-0.5594,-0.5593,-0.5592,-0.5592,-0.5659,-0.5661,-0.5664,0,0,0,0,0,0,0,0,0,0,0,0,0,0,0,-0.5515,-0.5515,0,-0.5581,-0.5581,-0.5582,-0.5594,-0.5593,-0.5593,-0.5592,-0.5659,-0.5662,-0.5664,0,0,0,0,0,0,0,0,0,0,0,0,0,0,0,0,0,0,0,0,0,0,0,0,0,0,0,0,0,0,0,0,0,0,0,0,0,0,0,0,0,0,0,0,0,0,0,0,0,0,0,0,0,0,0,0,0,0,0,0,0,0,0,0,0,0,0,0,0]}],[{"header":{"parameterUnit":"kt","parameterCategory":2,"dx":1,"dy":1,"la1":30.253999710083008,"la2":30.299108505249023,"lo1":-89.0895004272461,"lo2":-89.04439544677734,"nx":28,"ny":28,"refTime":"2022-10-05T21:00:00:Z","depth":0,"parameterNumber":2,"parameterNumberName":"V-component_of_WINDS"},"data":[-3.2926,-3.2993,-3.3005,-3.3086,-3.311,-3.3167,-3.3191,-3.3223,-3.325,-3.3319,-3.336,-3.3376,-3.3407,-3.3458,-3.3502,-3.3508,-3.3527,-3.3544,-3.3548,-3.3465,-3.3454,-3.3443,-3.343,-3.3547,-3.3547,-3.3634,-3.3635,-3.3636,-3.2868,-3.2893,-3.2939,-3.2991,-3.303,-3.3022,-3.3061,-3.3095,-3.3145,-3.3179,-3.3219,-3.328,-3.3328,-3.3353,-3.3401,-3.3431,-3.343,-3.3444,-3.3443,-3.3448,-3.3358,-3.3344,-3.3445,-3.3445,-3.3445,-3.3445,-3.3445,-3.3445,-3.2766,-3.2805,-3.2843,-3.2892,-3.2921,-3.2955,-3.2994,-3.3014,-3.3057,-3.3109,-3.3112,-3.3168,-3.3203,-3.3264,-3.3286,-3.333,-3.3316,-3.3334,-3.3339,-3.3344,-3.335,-3.3228,-3.3338,-3.3338,-3.3338,-3.3337,-3.3337,0,-3.2695,-3.2702,-3.2745,-3.2793,-3.2829,-3.2866,-3.2902,-3.2926,-3.2941,-3.2976,-3.3027,-3.3058,-3.3119,-3.3168,-3.3213,-3.3233,-3.3226,-3.3225,-3.3238,-3.324,-3.3236,-3.3242,-3.3098,-3.3222,-3.3221,-3.322,-3.322,-3.3219,-3.2595,-3.2637,-3.2681,-3.271,-3.2732,-3.2778,-3.2808,-3.2818,-3.2849,-3.2892,-3.2925,-3.2974,-3.3014,-3.3092,-3.3112,-3.3157,-3.3154,-3.3201,-3.316,-3.3161,-3.3158,-3.3156,-3.3161,-3.3209,-3.321,-3.3211,-3.3212,0,-3.2538,-3.2554,-3.2623,-3.2661,-3.2672,-3.2716,-3.2748,-3.2786,-3.2799,-3.2854,-3.2866,-3.2888,-3.2937,-3.2949,-3.3006,-3.3011,-3.3085,-3.3079,-3.3074,-3.3075,-3.312,-3.3116,-3.3259,-3.3279,-3.3155,-3.3156,-3.3157,0,-3.2459,-3.2514,-3.2536,-3.2575,-3.2637,-3.2645,-3.2706,-3.2723,-3.2752,-3.2795,-3.2789,-3.2829,-3.2837,-3.2879,-3.2886,-3.2948,-3.2957,-3.2966,-3.2967,-3.2968,-3.2967,-3.2984,-3.298,-3.2966,-3.2965,-3.2964,-3.2964,0,-3.237,-3.2444,-3.2507,-3.2527,-3.2571,-3.2601,-3.262,-3.2652,-3.268,-3.2718,-3.2736,-3.2779,-3.2803,-3.2836,-3.2845,-3.2817,-3.2919,-3.2883,-3.2928,-3.2928,-3.2951,-3.2949,-3.3072,-3.2963,-3.2962,-3.2962,-3.2962,0,-3.2309,-3.2348,-3.2436,-3.2474,-3.2493,-3.2533,-3.2578,-3.2615,-3.2649,-3.2656,-3.2685,-3.2683,-3.2736,-3.27,-3.2773,-3.2736,-3.2759,-3.2771,-3.2774,-3.2781,-3.2741,-3.2811,-3.2924,-3.2938,-3.2786,-3.2785,-3.2784,0,-3.2204,-3.2296,-3.2304,-3.2387,-3.2432,-3.2423,-3.2468,-3.2498,-3.2512,-3.2551,-3.2565,-3.2609,-3.2584,-3.2599,-3.2634,-3.265,-3.2699,-3.2644,-3.2701,-3.2703,-3.2695,-3.2799,-3.2814,-3.2898,-3.2765,-3.2767,-3.2768,0,-3.2124,-3.2177,-3.2191,-3.2214,-3.2255,-3.2291,-3.2342,-3.2387,-3.2414,-3.2446,-3.249,-3.2549,-3.2534,-3.2559,-3.256,-3.2595,-3.2666,-3.2574,-3.2575,-3.2592,-3.2755,-3.277,-3.2784,-3.2659,-3.2662,-3.2664,-3.2753,0,-3.2033,-3.208,-3.2118,-3.2166,-3.2196,-3.2247,-3.2261,-3.229,-3.2289,-3.2302,-3.2365,-3.2389,-3.2434,-3.2451,-3.2449,-3.2526,-3.2516,-3.2498,-3.2464,-3.2531,-3.2561,-3.2573,-3.2419,-3.2418,-3.2417,-3.2416,0,0,-3.1929,-3.1997,-3.2002,-3.2052,-3.2078,-3.2067,-3.2121,-3.2144,-3.219,-3.2208,-3.2189,-3.2278,-3.2298,-3.2373,-3.2394,-3.2411,-3.2427,-3.2402,-3.2499,-3.2508,-3.2516,-3.2548,-3.256,-3.2415,-3.2414,-3.2414,-3.2414,0,-3.1899,-3.1922,-3.1975,-3.2,-3.2036,-3.2047,-3.206,-3.2093,-3.2103,-3.2164,-3.2153,-3.2192,-3.226,-3.2285,-3.2306,-3.2393,-3.2383,-3.2405,-3.2449,-3.249,-3.25,-3.2509,-3.2543,-3.2554,-3.2412,-3.2412,-3.2412,0,-3.1825,-3.185,-3.1877,-3.1933,-3.1956,-3.2,-3.1969,-3.2016,-3.2049,-3.2033,-3.2093,-3.2108,-3.214,-3.2207,-3.2238,-3.2221,-3.2343,-3.2305,-3.231,-3.2314,-3.2354,-3.2366,-3.2377,-3.2234,-3.2233,-3.2233,0,0,-3.1797,-3.184,-3.1869,-3.1927,-3.1943,-3.1959,-3.1983,-3.1984,-3.2014,-3.2026,-3.2045,-3.2074,-3.2114,-3.214,-3.2178,-3.225,-3.2258,-3.2282,-3.2291,-3.2298,-3.2305,-3.2347,-3.2359,-3.223,-3.223,-3.223,0,0,-3.1783,-3.182,-3.1814,-3.1883,-3.1913,-3.1944,-3.1979,-3.1972,-3.2008,-3.2003,-3.2006,-3.2014,-3.2077,-3.2091,-3.2057,-3.2167,-3.2133,-3.2141,-3.2155,-3.2166,-3.2174,-3.217,-3.2027,0,0,0,0,0,-3.1759,-3.1815,-3.181,-3.1823,-3.1892,-3.1948,-3.1956,-3.1961,-3.1938,-3.1966,-3.1981,-3.1968,-3.2074,-3.2044,-3.2056,-3.2095,-3.2198,-3.2204,-3.2209,-3.2244,-3.2255,-3.2265,0,0,0,0,0,0,-3.1764,-3.1781,-3.1808,-3.1842,-3.1858,-3.1946,-3.1908,-3.1911,-3.1936,-3.1932,-3.1965,-3.1969,-3.1973,-3.2037,-3.2049,-3.2085,-3.2023,-3.2201,-3.2205,-3.221,-3.2248,-3.2257,-3.2265,0,0,0,0,0,-3.1768,-3.1782,-3.1892,-3.1841,-3.1855,-3.1875,-3.1906,-3.1908,-3.1927,-3.195,-3.1953,-3.1929,-3.1974,-3.1984,-3.2044,-3.208,-3.2015,-3.202,-3.2204,-3.2208,-3.2211,-3.2253,0,0,0,0,0,0,-3.1772,-3.1784,-3.1895,-3.1899,-3.182,-3.187,-3.1878,-3.1906,-3.1943,-3.1946,-3.1913,-3.191,-3.1975,-3.1982,-3.199,-3.2078,-3.2009,-3.2013,-3.2016,-3.2207,-3.221,-3.2212,0,0,0,0,0,0,-3.1777,-3.1787,-3.1897,-3.187,-3.1871,-3.1866,-3.1873,-3.1924,-3.1943,-3.1903,-3.1902,-3.1911,-3.1963,-3.1982,-3.1988,-3.2067,-3.2004,-3.2008,-3.2011,-3.2013,-3.2209,-3.2211,0,0,0,0,0,0,-3.1781,-3.179,-3.1869,-3.187,-3.1871,-3.1919,-3.191,-3.1981,-3.1922,-3.1902,-3.1916,-3.1914,-3.1963,-3.1969,-3.1986,-3.2063,-3.2066,-3.2004,-3.2007,-3.2009,-3.201,0,0,0,0,0,0,0,-3.1785,-3.1722,-3.1869,-3.187,-3.187,-3.1939,-3.194,-3.1941,-3.1921,-3.1919,-3.1917,-3.1915,-3.1981,-3.1985,-3.199,-3.206,0,0,-3.2004,-3.2006,0,0,0,0,0,0,0,0,-3.1718,-3.1721,-3.187,-3.187,-3.1871,-3.1939,-3.194,-3.1941,-3.1921,-3.1919,-3.1917,-3.1916,-3.1982,-3.1985,-3.1989,0,0,0,0,0,0,0,0,0,0,0,0,0,0,0,-3.187,-3.187,0,-3.1939,-3.194,-3.194,-3.1921,-3.1919,-3.1918,-3.1916,-3.1983,-3.1986,-3.1989,0,0,0,0,0,0,0,0,0,0,0,0,0,0,0,0,0,0,0,0,0,0,0,0,0,0,0,0,0,0,0,0,0,0,0,0,0,0,0,0,0,0,0,0,0,0,0,0,0,0,0,0,0,0,0,0,0,0,0,0,0,0,0,0,0,0,0,0,0]}]]]